Regional Weather Roundup
Issued by NWS

Home | Current Version | Previous Version | Graphics & Text | Print | Product List | Glossary On
Versions: 1 2 3 4 5 6 7 8 9 10 11 12 13 14 15 16 17 18 19 20 21 22 23 24 25 26 27 28 29 30 31 32 33 34 35 36 37 38 39 40 41 42 43 44 45 46 47 48 49 50
000
ASUS43 KLOT 100858
RWRIL

ILLINOIS REGIONAL WEATHER ROUNDUP
NATIONAL WEATHER SERVICE CHICAGO/ROMEOVILLE IL
400 AM CDT THU JUL 10 2014

NOTE: "FAIR" INDICATES FEW OR NO CLOUDS BELOW 12,000 FEET WITH NO
SIGNIFICANT WEATHER AND/OR OBSTRUCTIONS TO VISIBILITY.

* THESE STATIONS ARE NOT UNDER NWS QUALITY CONTROL. THEY ALSO MAY NOT
  REPORT WEATHER SUCH AS PRECIPITATION OR FOG.

ILZ001-002-007-009-015-016-024-101000-
NORTHWEST ILLINOIS

CITY           SKY/WX    TMP DP  RH WIND       PRES   REMARKS
MOLINE         CLEAR     61  56  83 CALM      30.08S
$$

ILZ003-004-008-010-011-017-018-101000-
NORTH CENTRAL ILLINOIS

CITY           SKY/WX    TMP DP  RH WIND       PRES   REMARKS
ROCKFORD       NOT AVBL
$$

ILZ005-006-012>014-019>023-101000-
NORTHEAST ILLINOIS

CITY           SKY/WX    TMP DP  RH WIND       PRES   REMARKS
CHICAGO-OHARE  CLEAR     61  55  81 CALM      30.10S
CHICAGO-MIDWAY CLEAR     65  59  81 CALM      30.10S
AURORA         CLEAR     55  51  86 CALM      30.11S
WAUKEGAN       CLEAR     54  53  97 CALM      30.10S
DUPAGE AIRPORT CLEAR     57  54  89 CALM      30.10S
WHEELING       CLEAR     60  55  83 CALM      30.11S
NORTHERLY ISL    N/A     62  59  90 CALM        N/A
$$

LMZ740>746-101000-
SOUTHERN LAKE MICHIGAN

STATION/POSITION SKY/WX   TEMP    WIND        PRES    VSBY  WAVE
                          AIR SEA DIR/SP/G                  HT/PER
                          (F)     (DEG/KT/KT) (MB)    (MI)  (FT/S)
SOUTHERN BUOY              58 55  230/  2/  4 1019.7R         0
WAUKEGAN HARBOR            62     260/  3/  4 1020.7S
HARRISON CRIB              65     180/  3/  3   N/A
BURNHAM HARBOR             63      CALM  /  1   N/A
CALUMET HARBOR             63      CALM  /  1 1020.0R
MICHIGAN CITY              63     120/  3/  4   N/A
$$

ILZ025>027-034>036-040-047-049-050-058-095>099-101000-
WEST-CENTRAL ILLINOIS

CITY           SKY/WX    TMP DP  RH WIND       PRES   REMARKS
$$

ILZ028>032-037-038-041>044-048-051>054-059>061-101000-
CENTRAL ILLINOIS

CITY           SKY/WX    TMP DP  RH WIND       PRES   REMARKS
PEORIA         NOT AVBL
SPRINGFIELD    CLEAR     58  56  93 CALM      30.09S
TAYLORVILLE    NOT AVBL
$$

ILZ033-039-045-046-055>057-062-063-101000-
EAST-CENTRAL ILLINOIS

CITY           SKY/WX    TMP DP  RH WIND       PRES   REMARKS
CHAMPAIGN      CLEAR     62  56  80 NE7       30.09S
MATTOON        PTCLDY    58  55  90 N3        30.07F
$$

ILZ079-100>102-101000-
SOUTHWEST ILLINOIS

CITY           SKY/WX    TMP DP  RH WIND       PRES   REMARKS
CAHOKIA*       CLEAR     60  59  96 CALM      30.07F
SPARTA*          N/A    N/A N/A N/A CALM      30.07
$$

ILZ064>066-069>071-074>076-080>082-084>086-088>090-092>094-101000-
SOUTH-CENTRAL ILLINOIS

CITY           SKY/WX    TMP DP  RH WIND       PRES   REMARKS
CARBONDALE     PTCLDY    64  62  93 CALM      30.06S
$$

ILZ067-068-072-073-078-083-087-091-101000-
SOUTHEAST ILLINOIS

CITY           SKY/WX    TMP DP  RH WIND       PRES   REMARKS
FLORA*         CLEAR     62  59  92 CALM      30.07S
$$

ABBREVIATIONS USED IN REMARKS
   TC - TEMPERATURE IN CELSIUS
  WCI - WIND CHILL INDEX
   HX - HEAT INDEX
  VSB - VISIBILITY
$$



USA.gov is the U.S. government's official web portal to all federal, state and local government web resources and services.